Meteo orario Abak

Oggi, 6 Marzo, Sabato

Tempo Temperatura Precipitazioni Vento Pressione Umidità
00:00 +29°C° 0 mm 2 m/s 752 mm Hg 80%
01:00 +29°C° 0 mm 1 m/s 752 mm Hg 82%
02:00 +29°C° 0 mm 1 m/s 752 mm Hg 84%
03:00 +28°C° 0 mm 1 m/s 752 mm Hg 85%
04:00 +28°C° 0 mm 1 m/s 752 mm Hg 86%
05:00 +28°C° 0.1 mm 1 m/s 752 mm Hg 86%
06:00 +28°C° 0.1 mm 1 m/s 753 mm Hg 85%
07:00 +28°C° 0.1 mm 1 m/s 753 mm Hg 85%
08:00 +30°C° 0.1 mm 1 m/s 754 mm Hg 76%
09:00 +32°C° 0.1 mm 2 m/s 754 mm Hg 66%
10:00 +35°C° 0.1 mm 2 m/s 755 mm Hg 57%
11:00 +36°C° 0 mm 2 m/s 754 mm Hg 52%
12:00 +37°C° 0 mm 2 m/s 753 mm Hg 48%
13:00 +37°C° 0 mm 1 m/s 752 mm Hg 43%
14:00 +38°C° 0.3 mm 2 m/s 752 mm Hg 43%
15:00 +38°C° 0.3 mm 3 m/s 751 mm Hg 43%
16:00 +38°C° 0.3 mm 3 m/s 750 mm Hg 43%
17:00 +36°C° 0 mm 4 m/s 751 mm Hg 52%
18:00 +34°C° 0 mm 4 m/s 751 mm Hg 60%
19:00 +32°C° 0 mm 4 m/s 751 mm Hg 69%
20:00 +32°C° 0.1 mm 4 m/s 752 mm Hg 71%
21:00 +30°C° 0.1 mm 3 m/s 753 mm Hg 73%
22:00 +30°C° 0.1 mm 2 m/s 753 mm Hg 75%
23:00 +29°C° 0 mm 2 m/s 753 mm Hg 76%

Domani, 7 Marzo, Domenica

Tempo Temperatura Precipitazioni Vento Pressione Umidità
00:00 +29°C° 0 mm 2 m/s 753 mm Hg 77%
01:00 +29°C° 0 mm 1 m/s 753 mm Hg 77%
02:00 +28°C° 0 mm 1 m/s 753 mm Hg 79%
03:00 +28°C° 0 mm 1 m/s 752 mm Hg 81%
04:00 +26°C° 0 mm 0 m/s 752 mm Hg 83%
05:00 +26°C° 0 mm 0 m/s 753 mm Hg 84%
06:00 +26°C° 0 mm 0 m/s 753 mm Hg 84%
07:00 +26°C° 0 mm 0 m/s 754 mm Hg 85%
08:00 +30°C° 0.1 mm 1 m/s 754 mm Hg 75%
09:00 +32°C° 0.1 mm 1 m/s 755 mm Hg 65%
10:00 +34°C° 0.1 mm 1 m/s 755 mm Hg 55%
11:00 +36°C° 0 mm 2 m/s 754 mm Hg 52%
12:00 +37°C° 0 mm 2 m/s 754 mm Hg 49%
13:00 +37°C° 0 mm 2 m/s 753 mm Hg 46%
14:00 +37°C° 0.5 mm 3 m/s 752 mm Hg 48%
15:00 +36°C° 0.5 mm 3 m/s 752 mm Hg 50%
16:00 +35°C° 0.5 mm 4 m/s 751 mm Hg 53%
17:00 +34°C° 0.7 mm 4 m/s 751 mm Hg 58%
18:00 +33°C° 0.7 mm 4 m/s 752 mm Hg 64%
19:00 +30°C° 0.7 mm 4 m/s 752 mm Hg 70%
20:00 +30°C° 0 mm 3 m/s 752 mm Hg 72%
21:00 +29°C° 0 mm 3 m/s 753 mm Hg 75%
22:00 +29°C° 0 mm 2 m/s 753 mm Hg 77%
23:00 +29°C° 0 mm 2 m/s 753 mm Hg 79%

Dopodomani, 8 Marzo, Lunedi

Tempo Temperatura Precipitazioni Vento Pressione Umidità
00:00 +28°C° 0 mm 2 m/s 753 mm Hg 81%
01:00 +28°C° 0 mm 2 m/s 753 mm Hg 83%
02:00 +28°C° 0 mm 1 m/s 752 mm Hg 85%
03:00 +28°C° 0 mm 1 m/s 752 mm Hg 87%
04:00 +27°C° 0 mm 1 m/s 751 mm Hg 89%
05:00 +27°C° 0 mm 1 m/s 752 mm Hg 89%
06:00 +27°C° 0 mm 1 m/s 752 mm Hg 89%
07:00 +27°C° 0 mm 1 m/s 752 mm Hg 89%
08:00 +29°C° 0 mm 1 m/s 753 mm Hg 79%
09:00 +31°C° 0 mm 2 m/s 753 mm Hg 69%
10:00 +34°C° 0 mm 2 m/s 754 mm Hg 59%
11:00 +34°C° 0 mm 2 m/s 753 mm Hg 57%
12:00 +35°C° 0 mm 2 m/s 753 mm Hg 54%
13:00 +36°C° 0 mm 2 m/s 752 mm Hg 51%
14:00 +36°C° 0 mm 2 m/s 751 mm Hg 52%
15:00 +36°C° 0 mm 2 m/s 751 mm Hg 52%
16:00 +36°C° 0 mm 2 m/s 750 mm Hg 52%
17:00 +34°C° 0 mm 2 m/s 750 mm Hg 57%
18:00 +33°C° 0 mm 3 m/s 750 mm Hg 61%
19:00 +31°C° 0 mm 3 m/s 751 mm Hg 66%
20:00 +30°C° 0.3 mm 3 m/s 751 mm Hg 70%
21:00 +30°C° 0.3 mm 3 m/s 752 mm Hg 74%
22:00 +29°C° 0.3 mm 3 m/s 752 mm Hg 78%
23:00 +29°C° 0.2 mm 3 m/s 752 mm Hg 79%

9 Marzo, Martedi

Tempo Temperatura Precipitazioni Vento Pressione Umidità
00:00 +28°C° 0.2 mm 2 m/s 752 mm Hg 81%
01:00 +28°C° 0.2 mm 2 m/s 752 mm Hg 82%
02:00 +28°C° 0 mm 1 m/s 751 mm Hg 83%
03:00 +28°C° 0 mm 1 m/s 751 mm Hg 85%
04:00 +27°C° 0 mm 1 m/s 751 mm Hg 86%
05:00 +27°C° 0 mm 1 m/s 751 mm Hg 87%
06:00 +25°C° 0 mm 0 m/s 751 mm Hg 87%
07:00 +25°C° 0 mm 0 m/s 751 mm Hg 87%
08:00 +29°C° 0.1 mm 1 m/s 752 mm Hg 78%
09:00 +31°C° 0.1 mm 1 m/s 752 mm Hg 69%
10:00 +34°C° 0.1 mm 2 m/s 753 mm Hg 60%
11:00 +34°C° 0.4 mm 2 m/s 752 mm Hg 59%
12:00 +35°C° 0.4 mm 2 m/s 752 mm Hg 58%
13:00 +35°C° 0.4 mm 2 m/s 751 mm Hg 57%
14:00 +35°C° 0.9 mm 3 m/s 750 mm Hg 57%
15:00 +35°C° 0.9 mm 3 m/s 750 mm Hg 56%
16:00 +35°C° 0.9 mm 3 m/s 749 mm Hg 56%
17:00 +34°C° 0.6 mm 3 m/s 749 mm Hg 61%
18:00 +33°C° 0.6 mm 3 m/s 750 mm Hg 67%
19:00 +30°C° 0.6 mm 3 m/s 750 mm Hg 72%
20:00 +30°C° 0.1 mm 3 m/s 751 mm Hg 75%
21:00 +29°C° 0.1 mm 2 m/s 751 mm Hg 77%
22:00 +29°C° 0.1 mm 2 m/s 752 mm Hg 79%
23:00 +29°C° 0 mm 2 m/s 752 mm Hg 81%

10 Marzo, Mercoledi

Tempo Temperatura Precipitazioni Vento Pressione Umidità
00:00 +28°C° 0 mm 2 m/s 751 mm Hg 82%
01:00 +28°C° 0 mm 2 m/s 751 mm Hg 83%
02:00 +28°C° 0 mm 1 m/s 751 mm Hg 84%
03:00 +27°C° 0 mm 1 m/s 751 mm Hg 85%
04:00 +27°C° 0 mm 1 m/s 750 mm Hg 87%
05:00 +25°C° 0 mm 0 m/s 751 mm Hg 87%
06:00 +25°C° 0 mm 0 m/s 751 mm Hg 87%
07:00 +25°C° 0 mm 0 m/s 751 mm Hg 88%
08:00 +29°C° 0 mm 1 m/s 752 mm Hg 79%
09:00 +31°C° 0 mm 1 m/s 753 mm Hg 70%
10:00 +34°C° 0 mm 2 m/s 753 mm Hg 61%
11:00 +34°C° 0.1 mm 2 m/s 753 mm Hg 60%
12:00 +34°C° 0.1 mm 2 m/s 752 mm Hg 59%
13:00 +34°C° 0.1 mm 2 m/s 751 mm Hg 58%
14:00 +35°C° 0.4 mm 3 m/s 751 mm Hg 58%
15:00 +35°C° 0.4 mm 3 m/s 750 mm Hg 57%
16:00 +35°C° 0.4 mm 3 m/s 749 mm Hg 56%
17:00 +34°C° 1 mm 3 m/s 750 mm Hg 62%
18:00 +31°C° 1 mm 3 m/s 750 mm Hg 68%
19:00 +30°C° 1 mm 2 m/s 751 mm Hg 73%
20:00 +30°C° 0.3 mm 2 m/s 751 mm Hg 76%
21:00 +29°C° 0.3 mm 2 m/s 752 mm Hg 78%
22:00 +29°C° 0.3 mm 2 m/s 752 mm Hg 81%
23:00 +28°C° 0.1 mm 2 m/s 752 mm Hg 81%

11 Marzo, Giovedi

Tempo Temperatura Precipitazioni Vento Pressione Umidità
00:00 +28°C° 0.1 mm 2 m/s 752 mm Hg 82%
01:00 +28°C° 0.1 mm 2 m/s 751 mm Hg 83%
02:00 +28°C° 0 mm 2 m/s 751 mm Hg 84%
03:00 +27°C° 0 mm 1 m/s 751 mm Hg 86%
04:00 +27°C° 0 mm 1 m/s 750 mm Hg 87%
05:00 +25°C° 0 mm 0 m/s 751 mm Hg 87%
06:00 +25°C° 0 mm 0 m/s 751 mm Hg 87%
07:00 +25°C° 0 mm 0 m/s 752 mm Hg 87%
08:00 +29°C° 0 mm 1 m/s 752 mm Hg 80%
09:00 +30°C° 0 mm 2 m/s 753 mm Hg 73%
10:00 +32°C° 0 mm 2 m/s 753 mm Hg 66%
11:00 +32°C° 0.3 mm 2 m/s 753 mm Hg 63%
12:00 +34°C° 0.3 mm 2 m/s 752 mm Hg 59%
13:00 +35°C° 0.3 mm 2 m/s 751 mm Hg 56%
14:00 +35°C° 0.6 mm 3 m/s 751 mm Hg 57%
15:00 +35°C° 0.6 mm 3 m/s 750 mm Hg 57%
16:00 +35°C° 0.6 mm 4 m/s 749 mm Hg 58%
17:00 +33°C° 0.1 mm 3 m/s 749 mm Hg 63%
18:00 +31°C° 0.1 mm 3 m/s 750 mm Hg 67%
19:00 +30°C° 0.1 mm 3 m/s 750 mm Hg 72%
20:00 +29°C° 0.2 mm 3 m/s 751 mm Hg 74%
21:00 +29°C° 0.2 mm 3 m/s 751 mm Hg 77%
22:00 +29°C° 0.2 mm 3 m/s 752 mm Hg 79%
23:00 +28°C° 0.3 mm 2 m/s 752 mm Hg 80%
Mostrare altro

Abbiamo bisogno del tuo consenso

Meteoprog e i nostri fornitori di servizi possono memorizzare e accedere a dati personali come cookie, identificatori di dispositivi o altre tecnologie simili sul tuo dispositivo e possono elaborare tali dati per personalizzare i contenuti e gli annunci, nonché fornire funzionalità dei social media e analizzarne il traffico.

  • Archiviare e/o accedere alle informazioni sul tuo dispositivo

    Cookie, identificatori di dispositivi o altre informazioni possono essere memorizzati o resi accessibili sul tuo dispositivo per le finalità sopra indicate.

  • Annunci e contenuti personalizzati, misurazione di annunci e contenuti, approfondimenti sul pubblico e sviluppo di prodotti

    Gli annunci e i contenuti possono essere personalizzati in base a un profilo. È possibile aggiungere più dati per personalizzare meglio annunci e contenuti. È possibile misurare il rendimento degli annunci e dei contenuti. È possibile ricavare informazioni sul pubblico che ha visto gli annunci e i contenuti. Tali dati possono essere utilizzati per sviluppare o migliorare l'esperienza, i sistemi e il software dell'utente.

Cliccando su “Accetto”, acconsenti all'uso di cookie, identificatori di dispositivo, web beacon o altre tecnologie simili. Puoi modificare le impostazioni nel browser del tuo dispositivo.

Per determinati scopi, è possibile fare affidamento su interessi legali, piuttosto che sul consenso. Puoi approfondire questo argomento consultando la nostra Informativa sulla privacy e sui cookie.